Simultaneous Nadir Overpasses (SNOs) Predictions

Prediction of SNOs between GOES-16 and AQUA Satellite Orbit:

Table of predicted SNOs for the next 14.0 days since TLE Epoch: 1/20/2024
Index Date Time (GOES-16) GOES-16 Lat,Lon AQUA Lat,Lon Distance(km) Time Diff (sec)
1 01/21/2024 18:49:47 0.04, -75.21 0.71, -72.04 360.29 80
2 01/22/2024 07:10:12 -0.04, -75.21 0.36, -76.98 201.38 80
3 01/24/2024 06:52:06 -0.04, -75.22 -0.46, -73.21 228.78 80
4 01/24/2024 19:12:39 0.04, -75.22 -0.63, -78.18 337.44 80
5 01/26/2024 18:59:52 0.03, -75.24 0.20, -74.41 94.17 80
6 01/27/2024 07:20:17 -0.03, -75.25 0.84, -79.35 466.30 80
7 01/29/2024 07:04:48 -0.03, -75.28 0.05, -75.57 33.26 80
8 01/31/2024 06:46:39 -0.03, -75.31 -0.79, -71.79 400.94 80
9 01/31/2024 19:07:12 0.03, -75.32 -0.25, -76.77 164.47 80
10 02/02/2024 18:54:21 0.03, -75.35 0.53, -72.97 270.78 80
